North Platte, NE

4:10 PM CDT on April 26, 2017 (GMT -0500)
North Platte Regional-Bird

Weather History for KLBF - May, 2014

Change the Weather History Date:

Saturday, May 3, 2014

  Actual Average Record
Temperature  
Mean Temperature 55 °F 54 °F  
Max Temperature 74 °F 68 °F 94 °F (1949)
Min Temperature 36 °F 39 °F 20 °F (1976)
Degree Days  
Heating Degree Days 10 12  
Month to date heating degree days 47 36  
Since 1 July heating degree days 6614 6426  
Cooling Degree Days 0 0  
Month to date cooling degree days 0 0  
Year to date cooling degree days 2 3  
Growing Degree Days 4 (Base 50)    
Moisture  
Dew Point 41 °F    
Average Humidity 63    
Maximum Humidity 92    
Minimum Humidity 33    
Precipitation  
Precipitation 0.00 in 0.09 in 1.03 in (1933)
Month to date precipitation T 0.27  
Year to date precipitation 2.48 4.43  
Snow  
Snow 0.00 in 0.00 in 1.00 in (1967)
Month to date snowfall 0.0 0.0  
Since 1 July snowfall 29.8 28.5  
Snow Depth 0.00 in    
Sea Level Pressure  
Sea Level Pressure 29.88 in    
Wind  
Wind Speed 7 mph (SE)    
Max Wind Speed 18 mph    
Max Gust Speed 22 mph    
Visibility 10 miles    
Events      
T = Trace of Precipitation, MM = Missing Value Source: NWS Daily Summary

Daily Weather History Graph

Daily Weather History Graph

Search for Another Location

Airport or City:

Trip Planner

Search our weather history database for the weather conditions in past years. The results will help you decide how hot, cold, wet, or windy it might be!

Date:

Astronomy

May. 03, 2014 Rise Set
Actual Time 6:37 AM CDT 8:41 PM CDT
Civil Twilight 6:07 AM CDT 9:12 PM CDT
Nautical Twilight 5:30 AM CDT 9:49 PM CDT
Astronomical Twilight 4:50 AM CDT 10:29 PM CDT
Moon 10:08 AM CDT (5/3) 12:05 AM CDT (5/3)
Length of Visible Light 15h 04m
Length of Day
14h 04m
Waxing Crescent, 20% of the Moon is Illuminated
May 3
Waxing Crescent
May 6
First Quarter
May 14
Full
May 21
Last Quarter
May 28
New

Hourly Weather History & Observations

Time (CDT) Temp. Windchill Dew Point Humidity Pressure Visibility Wind Dir Wind Speed Gust Speed Precip Events Conditions
12:53 AM 48.0 °F - 39.9 °F 74% 29.92 in 10.0 mi Calm Calm - N/A   Clear
1:53 AM 46.9 °F - 39.9 °F 77% 29.92 in 10.0 mi East 3.5 mph - N/A   Scattered Clouds
2:53 AM 46.0 °F - 39.9 °F 79% 29.91 in 10.0 mi Calm Calm - N/A   Mostly Cloudy
3:53 AM 44.1 °F 42.5 °F 41.0 °F 89% 29.91 in 10.0 mi WNW 3.5 mph - N/A   Overcast
4:53 AM 39.9 °F 36.7 °F 36.0 °F 86% 29.91 in 10.0 mi NE 4.6 mph - N/A   Clear
5:53 AM 37.9 °F 35.5 °F 36.0 °F 93% 29.90 in 10.0 mi NE 3.5 mph - N/A   Clear
6:53 AM 36.0 °F 33.3 °F 33.1 °F 89% 29.93 in 10.0 mi North 3.5 mph - N/A   Clear
7:53 AM 45.0 °F 43.5 °F 39.9 °F 82% 29.93 in 10.0 mi ENE 3.5 mph - N/A   Clear
8:53 AM 51.1 °F - 41.0 °F 68% 29.94 in 10.0 mi SSE 4.6 mph - N/A   Clear
9:53 AM 54.0 °F - 39.9 °F 59% 29.96 in 10.0 mi ESE 5.8 mph - N/A   Clear
10:53 AM 57.9 °F - 41.0 °F 53% 29.96 in 10.0 mi Variable 4.6 mph - N/A   Clear
11:53 AM 62.1 °F - 41.0 °F 46% 29.95 in 10.0 mi South 6.9 mph - N/A   Clear
12:53 PM 66.9 °F - 42.1 °F 40% 29.90 in 10.0 mi South 6.9 mph - N/A   Clear
1:53 PM 70.0 °F - 44.1 °F 39% 29.87 in 10.0 mi South 9.2 mph - N/A   Clear
2:53 PM 72.0 °F - 43.0 °F 35% 29.86 in 10.0 mi South 12.7 mph - N/A   Clear
3:53 PM 72.0 °F - 42.1 °F 34% 29.85 in 10.0 mi SSE 10.4 mph 18.4 mph N/A   Clear
4:53 PM 73.9 °F - 43.0 °F 33% 29.83 in 10.0 mi South 10.4 mph - N/A   Clear
5:53 PM 73.9 °F - 44.1 °F 34% 29.83 in 10.0 mi South 8.1 mph - N/A   Clear
6:53 PM 73.0 °F - 46.0 °F 38% 29.83 in 10.0 mi ESE 9.2 mph - N/A   Clear
7:53 PM 68.0 °F - 46.0 °F 45% 29.80 in 10.0 mi ESE 11.5 mph - N/A   Clear
8:53 PM 63.0 °F - 45.0 °F 52% 29.79 in 10.0 mi SE 9.2 mph - N/A   Clear
9:53 PM 55.0 °F - 45.0 °F 69% 29.82 in 10.0 mi East 9.2 mph - N/A   Clear
10:53 PM 52.0 °F - 44.1 °F 74% 29.82 in 10.0 mi ESE 8.1 mph - N/A   Clear
11:53 PM 51.1 °F - 44.1 °F 77% 29.81 in 10.0 mi ESE 10.4 mph - N/A   Clear